GW4151 Weather Reports


time (UTC)temp
C
wind
direction
speed
KPH
gust
KPH
rain 1hr
cm
rain 24hr
cm
rain mn
cm
humidity
%
barometer
mb
20260502205325 9 288 12.9 16.1 0.00 0.00 0.00 42 997.1
20260502203822 9 239 11.3 17.7 0.00 0.00 0.00 41 997.3
20260502202318 8 282 9.7 16.1 0.00 0.00 0.00 45 997.4
20260502200814 8 215 11.3 14.5 0.00 0.00 0.00 47 997.6
20260502195310 8 288 16.1 25.7 0.00 0.00 0.00 46 997.9
20260502193805 8 264 14.5 22.5 0.00 0.00 0.00 46 997.9
20260502192301 8 216 8.0 16.1 0.00 0.00 0.00 48 998.1
20260502190758 8 221 14.5 24.1 0.00 0.00 0.00 47 998.3
20260502185258 8 287 12.9 17.7 0.00 0.00 0.00 50 998.5
20260502183754 8 298 12.9 17.7 0.00 0.00 0.00 45 998.4
20260502182253 8 289 12.9 22.5 0.00 0.00 0.00 47 998.9
20260502180752 8 274 16.1 20.9 0.00 0.00 0.00 47 998.6
20260502163731 7 242 12.9 14.5 0.00 0.00 0.00 50 998.8
20260502162228 8 317 8.0 14.5 0.00 0.00 0.00 51 998.9
20260502160726 7 292 17.7 22.5 0.00 0.00 0.00 48 999.2
20260502152223 7 145 8.0 16.1 0.00 0.00 0.00 53 999.1
20260502150721 7 354 3.2 14.5 0.00 0.00 0.00 53 999.0
20260502130653 5 10 4.8 11.3 0.00 0.00 0.00 69 999.2
20260502123647 5 183 3.2 3.2 0.00 0.00 0.00 76 999.2
20260502122143 3 197 0.0 3.2 0.00 0.00 0.00 80 999.2
20260502120641 3 24 3.2 4.8 0.00 0.00 0.00 80 999.2
20260502115137 3 185 0.0 1.6 0.00 0.00 0.00 82 999.2
20260502113634 3 197 0.0 0.0 0.00 0.00 0.00 83 998.9
20260502112133 0 197 0.0 0.0 0.00 0.00 0.00 93 999.1
20260502110631 -1 186 0.0 0.0 0.00 0.00 0.00 94 998.9
20260502105128 -1 194 0.0 0.0 0.00 0.00 0.00 93 998.8
20260502103626 -1 174 0.0 0.0 0.00 0.00 0.00 93 998.8
20260502102123 -1 200 0.0 0.0 0.00 0.00 0.00 92 999.0
20260502100623 -1 200 0.0 0.0 0.00 0.00 0.00 91 998.9
20260502090615 0 200 0.0 0.0 0.00 0.00 0.00 86 998.5
20260502070553 2 243 1.6 3.2 0.00 0.00 0.00 73 998.4
20260502065052 2 217 0.0 0.0 0.00 0.00 0.00 74 998.4
20260502063550 2 275 0.0 4.8 0.00 0.00 0.00 71 998.3
20260502062049 2 256 1.6 3.2 0.00 0.00 0.00 71 998.6
20260502060544 2 212 0.0 3.2 0.00 0.00 0.00 71 998.6
20260502055044 2 207 1.6 3.2 0.00 0.00 0.00 71 998.6
20260502053541 2 234 1.6 3.2 0.00 0.00 0.00 71 998.6
20260502052040 2 226 1.6 1.6 0.00 0.00 0.00 71 998.5
20260502050537 2 206 0.0 0.0 0.00 0.00 0.00 70 998.5
20260502045034 2 228 1.6 3.2 0.00 0.00 0.00 69 998.4
20260502043530 2 220 0.0 1.6 0.00 0.00 0.00 69 998.4
20260502042025 3 259 1.6 6.4 0.00 0.00 0.00 67 998.2
20260502040522 3 303 0.0 11.3 0.00 0.00 0.00 66 998.3
20260502035018 3 282 0.0 1.6 0.00 0.00 0.00 66 998.4
20260502033518 3 311 3.2 6.4 0.00 0.00 0.00 66 998.3
20260502032014 3 302 3.2 4.8 0.00 0.00 0.00 66 998.2
20260502030514 3 2 4.8 9.7 0.00 0.00 0.00 65 998.5
20260502025012 3 321 3.2 6.4 0.00 0.00 0.00 65 998.3
20260502023511 3 306 3.2 4.8 0.00 0.00 0.00 64 998.1
20260502022008 3 323 8.0 11.3 0.00 0.00 0.00 61 997.9
20260502020506 3 204 1.6 14.5 0.00 0.00 0.00 61 997.7
20260502015002 3 343 6.4 9.7 0.00 0.00 0.00 60 997.8
20260502013457 4 10 6.4 9.7 0.00 0.00 0.00 59 997.6
20260502011955 4 301 4.8 6.4 0.00 0.00 0.00 57 997.3
20260502010450 4 293 1.6 6.4 0.00 0.00 0.00 56 997.2
20260502004948 5 352 3.2 9.7 0.00 0.00 0.00 54 997.2
20260502003443 5 315 9.7 14.5 0.00 0.00 0.00 54 996.9
20260502001940 5 184 4.8 12.9 0.00 0.00 0.00 52 997.2
20260502000439 5 330 6.4 14.5 0.00 0.00 0.00 52 996.9
20260501234938 5 293 16.1 20.9 0.00 0.00 0.00 54 996.9
20260501233436 5 197 8.0 16.1 0.00 0.00 0.00 51 996.7
20260501231932 6 303 17.7 24.1 0.00 0.00 0.00 46 996.8
20260501230427 6 300 11.3 20.9 0.00 0.00 0.00 56 996.8
20260501224923 6 299 9.7 16.1 0.00 0.00 0.00 52 996.7
20260501223420 6 258 11.3 16.1 0.00 0.00 0.00 51 996.7
20260501221915 6 303 12.9 22.5 0.00 0.00 0.00 51 996.5
20260501220414 7 255 11.3 17.7 0.00 0.00 0.00 54 996.4
20260501214913 7 279 19.3 24.1 0.00 0.00 0.00 47 996.5
20260501213413 7 313 17.7 24.1 0.00 0.00 0.00 53 996.4
20260501211908 7 304 14.5 27.4 0.00 0.00 0.00 53 996.3
20260501210406 8 284 16.1 22.5 0.00 0.00 0.00 50 996.2